Location: Avon
(37.7514°N, 90.2235°W)
Time: 18:31:13
(UTC+00:00)

A-11 Canister half - Pass Details

Date: 17 November 2025
Orbit: 1526 x 1681 km, 47.3° (Epoch: 06 December)

Event Time Altitude Azimuth Distance (km) Brightness Sun altitude
Rises 03:16:59 0° 289° (WNW) 4,846 12.2 -52.6°
Reaches altitude 10° 03:20:19 10° 295° (WNW) 3,838 11.5 -53.3°
Enters shadow 03:24:21 27° 308° (NW) 2,722 10.5 -54.0°
